Location: Middle Mouse
(53.4500°N, 4.4000°W)
Time: 15:35:43
(UTC+00:00)

Daily predictions for brighter satellites

Satellite Brightness Start Highest point End
(mag) Time Altitude Azimuth Time Altitude Azimuth Time Altitude Azimuth
Nadezhda 1 Rocket 4.2 16:30:01 10° S 16:36:14 59° E 16:42:32 10° NNE
Cosmos 1867 4.2 16:34:01 10° S 16:39:04 41° ESE 16:44:10 10° NE
IRAS Rocket 4.4 16:33:36 10° NNE 16:39:13 81° WNW 16:44:51 10° SSW
Cosmos 405 Rocket 3.6 16:39:10 10° NNW 16:43:03 57° W 16:46:59 10° S
SL-08 R/B 3.5 16:39:22 10° NNE 16:44:17 84° WNW 16:49:06 10° SSW
GEOS 3 Rocket 4.1 16:39:14 10° NE 16:44:34 60° NW 16:49:49 10° WSW
Envisat 3.1 16:39:36 10° SSE 16:44:35 60° ENE 16:49:36 10° N
ASTRO F (AKARI) 4.2 16:42:35 10° SSE 16:45:49 81° ENE 16:48:58 10° NNW
Lacrosse 5 rocket 2.5 16:43:45 10° SSW 16:46:50 25° SE 16:49:51 10° E
Cosmos 1862 3.9 16:43:00 10° NNW 16:47:01 64° W 16:50:58 10° S
Cosmos 1500 Rocket 4.4 16:46:31 10° NNW 16:50:51 56° W 16:55:12 10° S
Cosmos 2322 Rocket 4.0 16:47:21 10° WNW 16:51:36 21° NNW 16:55:51 10° NNE
Cosmos 2297 3.7 16:45:59 10° NNW 16:51:43 86° ENE 16:57:26 10° SSE
YAOGAN 6 2.8 16:50:01 10° SE 16:53:31 49° ENE 16:56:59 10° N
Cosmos 1606 3.2 16:51:48 10° SSE 16:55:29 42° E 16:59:10 10° NNE
Landsat 5 4.2 16:53:57 10° NNE 16:58:10 40° E 17:02:25 10° SSE
SL-16 R/B 2.8 16:54:15 10° S 16:59:27 39° ESE 17:04:40 10° NE
Cosmos 2154 Rocket 4.3 16:55:19 10° NNW 17:01:40 75° W 17:08:00 10° S
Sich 1 3.0 17:01:33 10° N 17:05:58 88° E 17:10:18 10° S
Cosmos 1656 Rocket 4.3 17:02:20 10° NNW 17:07:33 36° NE 17:12:41 10° ESE
SMAP 3.1 17:03:14 10° SSE 17:07:47 57° ENE 17:12:23 10° N
CZ-4C R/B 3.3 17:05:45 10° NNE 17:09:18 48° E 17:12:48 10° S
Cosmos 1470 Rocket 4.1 17:06:44 10° N 17:10:45 35° ENE 17:14:43 10° SE
YAOGAN 1 4.2 17:09:24 10° E 17:11:53 15° NE 17:14:23 10° NNE
Cosmos 1151 Rocket 3.7 17:10:09 10° SSE 17:14:00 33° E 17:17:50 10° NNE
Cosmos 2263 4.4 17:11:07 10° NNW 17:16:34 47° NE 17:21:58 10° ESE
SL-8 Rocket 4.0 17:13:32 10° N 17:19:47 70° ENE 17:26:04 10° SSE
Cosmos 2341 Rocket 4.0 17:15:03 10° N 17:21:23 88° ENE 17:27:44 10° S
Cosmos 1238 Rocket 4.3 17:20:08 10° NNE 17:22:49 18° ENE 17:25:50 10° ESE
CZ-2C R/B 3.9 17:19:58 10° ESE 17:23:49 24° ENE 17:27:35 10° N
COSMO-SKYMED 1 4.0 17:23:06 16° ENE 17:24:23 18° E 17:27:21 10° SE
TELKOM 3 4.3 17:21:51 10° WSW 17:24:32 37° S 17:26:18 15° ESE
X-37B 3.2 17:26:23 10° S 17:27:28 11° SSE 17:28:33 10° SE
Cosmos 2360 Rocket 4.1 17:23:22 10° WNW 17:27:29 20° NNW 17:31:36 10° NNE
Cosmos 2333 Rocket 3.6 17:23:22 10° W 17:28:21 31° NW 17:33:21 10° NNE
USA 81 4.0 17:24:16 10° N 17:29:32 66° E 17:34:48 10° SSE
Radarsat Rocket 4.5 17:23:34 10° SSE 17:29:51 76° WSW 17:37:01 10° NNW
Cosmos 2219 Rocket 3.6 17:25:21 10° WSW 17:30:21 31° NW 17:35:21 10° NNE
USA 281 3.6 17:25:07 10° ESE 17:31:09 41° NE 17:37:12 10° NNW
Cosmos 2285 Rocket 4.3 17:25:24 10° NNW 17:31:49 76° WSW 17:38:09 10° SSE
Helios 1A Rocket 4.0 17:33:25 17° E 17:35:10 23° ENE 17:38:21 10° N
CORIOLIS 4.1 17:29:47 10° SSE 17:35:13 84° ENE 17:40:43 10° NNW
Cosmos 1821 Rocket 4.4 17:29:29 10° N 17:35:16 38° ENE 17:41:06 10° SE
COSMOS 2428 4.1 17:30:23 10° WSW 17:35:32 33° NW 17:40:42 10° NNE
Meteor 1-4 Rocket 3.2 17:32:35 10° SSE 17:35:48 32° E 17:37:26 21° NE
NOSS 3-3 (A) 4.5 17:31:11 10° NW 17:38:15 66° NE 17:46:20 10° ESE
NOSS 3-3 (C) 4.5 17:31:14 10° NW 17:38:21 65° NE 17:46:25 10° ESE
H-2A R/B 3.1 17:35:17 13° ESE 17:38:45 24° ENE 17:42:44 10° N
USA 267 3.3 17:34:11 14° E 17:40:00 72° NNE 17:46:32 10° WNW
Cosmos 44 Rocket 3.5 17:35:04 10° NW 17:40:09 57° NE 17:45:09 11° ESE
Cosmos 1933 Rocket 3.8 17:36:32 10° N 17:40:53 47° ENE 17:45:12 10° SSE
Cosmos 1939 Rocket 3.1 17:37:15 10° SE 17:40:56 42° ENE 17:44:43 10° N
Cosmos 389 Rocket 3.0 17:38:15 10° SSW 17:41:37 57° WNW 17:45:01 10° N
Cosmos 1328 Rocket 3.6 17:37:37 10° S 17:41:51 54° E 17:46:07 10° NNE
Cosmos 1666 Rocket 4.0 17:37:34 10° NNW 17:41:58 65° W 17:46:22 10° S
Cosmos 1980 Rocket 4.1 17:40:25 10° NNW 17:43:01 13° N 17:45:16 11° NNE
Meteor 1-20 Rocket 4.5 17:37:12 10° NNW 17:43:05 78° W 17:48:53 10° S
CZ-4 R/B 2.3 17:41:26 18° ESE 17:43:20 26° ENE 17:46:45 10° N
Cosmos 1602 3.6 17:39:37 10° N 17:43:33 70° ENE 17:47:26 10° SSE
IRS-1C Rocket 4.2 17:42:23 10° SE 17:47:28 50° ENE 17:52:34 10° N
Cosmos 2181 Rocket 4.0 17:43:34 10° S 17:49:57 77° E 17:56:17 10° NNE
H-2A R/B 3.9 17:46:14 10° S 17:50:12 40° W 17:54:03 10° NNW
Cosmos 2237 Rocket 3.0 17:44:52 10° WSW 17:50:18 49° NW 17:55:40 11° NNE
NOAA 11 4.1 17:45:48 10° SSE 17:51:14 86° ENE 17:56:44 10° NNW
CZ-4B R/B 3.6 17:47:16 10° S 17:52:32 64° WSW 17:57:49 10° NNW
SL-16 R/B 4.3 17:51:35 10° NW 17:54:32 14° N 17:57:29 10° NNE
Cosmos 1603 4.5 17:50:17 10° SSE 17:55:08 31° ESE 17:56:56 25° ENE
Meteor 1-26 Rocket 4.3 17:49:32 10° S 17:55:30 67° E 18:01:26 10° NNE
Cosmos 2369 Rocket 2.3 17:50:43 10° NNW 17:56:28 83° WSW 18:02:08 10° SSE
H-2A R/B 2.1 17:52:25 10° NNE 17:56:38 81° WNW 18:00:56 10° SSW
Cosmos 1943 Rocket 2.9 17:52:14 10° NW 17:57:40 56° WSW 18:03:06 10° S
CZ-2D R/B 3.5 17:54:07 10° SE 17:57:47 44° ENE 18:01:29 10° N
Cosmos 1943 4.0 17:53:44 10° SSE 17:58:32 29° ESE 17:59:58 26° E
Meteor 1-14 Rocket 4.3 17:52:52 10° NNW 17:58:52 80° ENE 18:04:53 10° SSE
Meteor 1-5 Rocket 4.4 17:53:05 10° N 17:58:55 54° ENE 18:04:35 10° SSE
Cosmos 1538 Rocket 4.3 17:55:26 10° S 18:00:36 50° ESE 18:03:44 23° NE
Cosmos 1371 Rocket 4.5 17:56:46 10° NNW 18:01:36 37° NE 18:03:40 27° E
ADEOS Rocket 4.0 17:54:01 10° NNE 18:01:38 64° WNW 18:09:14 10° SW
Cosmos 1782 2.7 18:00:16 10° S 18:04:12 65° E 18:06:45 21° NNE
Okean O Rocket 2.5 18:00:22 10° S 18:04:38 52° W 18:08:57 10° NNW
ISS -3.5 18:01:35 10° W 18:04:55 61° S 18:05:55 39° SE
Cosmos 1633 Rocket 4.2 18:01:54 10° NNW 18:06:05 45° W 18:10:14 10° SSW
Okean-O 2.9 18:02:00 10° SE 18:06:13 44° ENE 18:10:27 10° N
Cosmos 2056 Rocket 4.0 18:02:57 10° NNW 18:07:53 38° NE 18:09:29 31° E
CENTAUR R/B 3.9 18:04:47 10° SSE 18:07:44 18° ESE 18:07:44 18° ESE
ARGOS 3.8 18:08:32 30° ENE 18:09:11 31° ENE 18:13:52 10° N
SL-08 R/B 4.4 18:03:45 10° N 18:09:56 82° ENE 18:16:04 10° SSE
Cosmos 1933 3.9 18:06:11 10° SSW 18:10:11 58° WNW 18:14:15 10° N
ERS-2 2.2 18:10:45 47° ENE 18:11:19 52° ESE 18:14:53 10° S
SKYMED 2 3.8 18:11:44 37° ENE 18:12:52 45° E 18:17:03 10° S
Cosmos 1869 Rocket 3.8 18:11:17 10° N 18:15:37 46° ENE 18:17:48 26° SE
Cosmos 1867 4.1 18:17:14 10° WSW 18:22:36 56° NW 18:25:34 26° NNE
Cosmos 1624 Rocket 4.2 18:19:34 10° NNW 18:24:44 48° NE 18:25:56 41° E
Lacrosse 5 rocket 0.8 18:22:00 10° WSW 18:25:38 81° NNW 18:25:53 74° NE
BREEZE-M DEB (TANK) 3.3 18:25:06 10° WSW 18:26:37 32° SSW 18:26:37 32° SSW
Cosmos 371 Rocket 3.4 18:22:17 10° NNW 18:27:07 53° ENE 18:28:01 46° E
Meteor 1-10 Rocket 4.4 18:22:15 10° SSE 18:27:34 45° E 18:28:50 39° ENE
CZ-4B R/B 1.3 18:29:34 73° WSW 18:29:34 73° WSW 18:32:34 10° SSW
Cosmos 489 Rocket 4.4 18:23:47 10° SSW 18:30:00 84° ESE 18:34:18 22° NNE
Cosmos 773 Rocket 4.3 18:26:03 10° SW 18:31:19 68° WNW 18:34:54 21° NNE
Cosmos 2322 Rocket 4.3 18:35:21 10° NNW 18:37:58 13° N 18:39:26 12° NNE
Cosmos 1500 3.5 18:35:46 10° NNW 18:39:33 66° W 18:43:22 10° S
NOSS 3-2 (A) 3.8 18:36:01 10° S 18:41:19 40° ESE 18:41:27 40° ESE
Cosmos 2239 Rocket 4.3 18:35:55 10° N 18:42:09 83° E 18:48:21 10° SSE
Cosmos 1535 Rocket 4.4 18:36:55 10° N 18:42:59 59° ENE 18:49:00 10° SSE
SL-16 R/B 2.9 18:37:59 10° SW 18:43:30 50° NW 18:46:58 22° NNE
YAOGAN 1 2.4 18:46:28 56° SSE 18:47:21 86° ENE 18:51:44 10° NNW
USA 215 3.8 18:46:42 36° ESE 18:47:28 38° SE 18:53:27 10° SSW
SL-24 DEB 4.4 18:43:48 10° N 18:48:34 74° W 18:53:15 10° SSW
Cosmos 1697 Rocket 4.2 18:45:25 10° NNW 18:48:48 21° NNE 18:48:48 21° NNE
Cosmos 1656 Rocket 4.2 18:45:54 10° NW 18:51:28 59° WSW 18:56:55 10° SSE
MOS 1 Rocket 3.6 18:52:43 59° ESE 18:52:43 59° ESE 18:57:49 10° S
Cosmos 1515 Rocket 4.5 18:55:28 10° SSW 18:59:43 48° WNW 19:02:19 22° N
USA 238 DEB 3.8 18:54:17 10° SSW 19:00:35 49° ESE 19:00:35 49° ESE
USA 238 3.8 18:54:23 10° SSW 19:00:39 48° SE 19:00:39 48° SE
COSMO-SKYMED 1 2.8 19:00:19 57° NNW 19:01:01 67° WNW 19:05:18 10° SSW
Cosmos 158 Rocket 4.3 18:57:03 10° SSW 19:00:46 49° S 19:00:46 49° S
Cosmos 1238 Rocket 3.4 18:58:45 10° NNW 19:02:34 60° W 19:07:10 10° S
Cosmos 332 Rocket 4.2 18:57:47 10° NNW 19:01:25 49° N 19:01:25 49° N
X-37B 3.5 19:01:03 10° SW 19:01:44 13° SSW 19:01:44 13° SSW
CZ-2C R/B 3.2 18:58:28 10° S 19:03:22 64° WSW 19:08:09 10° NNW
Cosmos 1934 Rocket 3.9 18:58:33 10° N 19:04:59 85° E 19:11:19 10° S
Cosmos 923 Rocket 4.0 19:00:43 10° SSW 19:05:13 64° SSE 19:05:13 64° SSE
Helios 1A Rocket 3.7 19:09:40 48° WSW 19:10:05 50° W 19:14:02 10° NNW
CSL-04 Debris 4.1 19:09:14 38° SSE 19:11:27 85° WSW 19:16:59 10° NNW
Cosmos 2228 Rocket 3.5 19:08:04 10° SSW 19:12:02 61° WSW 19:12:02 61° WSW
Cosmos 2360 Rocket 4.3 19:11:16 10° NNW 19:13:49 13° N 19:14:21 13° N
Cosmos 2333 Rocket 4.3 19:11:25 10° NW 19:14:33 15° NNW 19:16:04 13° N
USA 281 3.6 19:08:56 10° SSE 19:15:26 63° WSW 19:22:00 10° NNW
Cosmos 2219 Rocket 4.3 19:13:07 10° NW 19:16:12 15° NNW 19:17:45 13° N
Nadezhda 3 Rocket 4.1 19:10:23 10° SSW 19:16:45 74° WNW 19:23:09 10° N
Meteor 2-6 Rocket 4.4 19:11:48 10° SSW 19:17:20 68° WNW 19:19:30 37° N
H-2A R/B 2.2 19:15:55 40° S 19:17:46 72° WSW 19:22:52 10° NNW
CZ-4 R/B 2.6 19:17:28 37° SW 19:18:11 41° W 19:22:05 10° NNW
Meteor 1-11 Rocket 4.1 19:16:20 10° NNW 19:22:03 65° W 19:27:51 10° S
USA 267 3.4 19:21:32 52° SSE 19:23:07 69° SSW 19:29:40 10° WNW
CSL-04 Rocket 3.8 19:25:43 66° SW 19:26:12 71° WSW 19:31:31 10° NNW
Cosmos 1980 Rocket 4.1 19:24:53 10° NNW 19:27:02 18° N 19:27:02 18° N
Cosmos 1680 Rocket 4.5 19:27:28 10° SSW 19:30:41 38° SSW 19:30:41 38° SSW
Cosmos 2237 Rocket 4.2 19:31:57 10° WNW 19:35:48 18° NNW 19:37:29 16° N
Cosmos 1603 4.0 19:33:24 10° SW 19:38:51 60° WNW 19:38:51 60° WNW
SL-16 R/B 4.4 19:37:44 10° NNW 19:39:33 14° N 19:39:33 14° N
ISS -0.4 19:38:27 10° W 19:38:53 13° W 19:38:53 13° W
Cosmos 1943 3.6 19:36:36 10° SW 19:41:49 62° WNW 19:41:49 62° WNW
ARGOS 3.9 19:50:03 50° WNW 19:50:03 50° WNW 19:54:33 10° NNW
Cosmos 2056 Rocket 4.5 19:45:07 10° NW 19:49:52 45° W 19:49:52 45° W
CENTAUR R/B 3.6 19:51:55 10° SSW 19:54:58 33° SSW 19:54:58 33° SSW
SL-16 R/B 4.4 20:25:06 10° WNW 20:28:51 19° NNW 20:28:51 19° NNW
USA 215 4.4 20:34:04 35° WSW 20:34:04 35° WSW 20:37:36 10° WSW
